| time (UTC) | temp C | wind direction | speed KPH | gust KPH | rain 1hr cm | rain 24hr cm | rain mn cm | humidity % | barometer mb |
| 20260902163019 | 27 | 318 | 1.6 | 6.4 | 0.00 | 0.00 | 0.00 | 53 | 1020.8 |
| 20260902161506 | 27 | 300 | 0.0 | 3.2 | 0.00 | 0.00 | 0.00 | 52 | 1020.8 |
| 20260902160009 | 26 | 163 | 4.8 | 8.0 | 0.00 | 0.00 | 0.00 | 51 | 1020.9 |
| 20260902154515 | 27 | 295 | 3.2 | 8.0 | 0.00 | 0.00 | 0.00 | 53 | 1020.9 |
| 20260902153019 | 27 | 51 | 1.6 | 6.4 | 0.00 | 0.00 | 0.00 | 54 | 1021.1 |
| 20260902151523 | 26 | 306 | 3.2 | 8.0 | 0.00 | 0.00 | 0.00 | 56 | 1021.2 |
| 20260902150004 | 26 | 309 | 3.2 | 6.4 | 0.00 | 0.00 | 0.00 | 59 | 1021.3 |
| 20260902144525 | 26 | 299 | 1.6 | 6.4 | 0.00 | 0.00 | 0.00 | 59 | 1021.5 |
| 20260902143014 | 26 | 294 | 1.6 | 6.4 | 0.00 | 0.00 | 0.00 | 58 | 1021.5 |
| 20260902141527 | 26 | 132 | 1.6 | 8.0 | 0.00 | 0.00 | 0.00 | 56 | 1021.5 |
| 20260902140006 | 26 | 291 | 4.8 | 9.7 | 0.00 | 0.00 | 0.00 | 1021.7 | |
| 20260902134511 | 26 | 148 | 3.2 | 6.4 | 0.00 | 0.00 | 0.00 | 1021.7 | |
| 20260902133012 | 26 | 348 | 3.2 | 11.3 | 0.00 | 0.00 | 0.00 | 54 | 1021.8 |
| 20260902131538 | 27 | 55 | 0.0 | 6.4 | 0.00 | 0.00 | 0.00 | 53 | 1021.9 |
| 20260902130028 | 26 | 311 | 4.8 | 12.9 | 0.00 | 0.00 | 0.00 | 1022.0 | |
| 20260902124508 | 26 | 303 | 1.6 | 6.4 | 0.00 | 0.00 | 0.00 | 57 | 1022.3 |
| 20260902123016 | 26 | 330 | 4.8 | 12.9 | 0.00 | 0.00 | 0.00 | 58 | 1022.3 |
| 20260902121518 | 26 | 284 | 4.8 | 9.7 | 0.00 | 0.00 | 0.00 | 60 | 1022.4 |
| 20260902120025 | 25 | 153 | 1.6 | 11.3 | 0.00 | 0.00 | 0.00 | 63 | 1022.5 |
| 20260902114534 | 25 | 201 | 1.6 | 8.0 | 0.00 | 0.00 | 0.00 | 63 | 1022.6 |
| 20260902113006 | 25 | 303 | 1.6 | 8.0 | 0.00 | 0.00 | 0.00 | 62 | 1022.8 |
| 20260902111516 | 25 | 329 | 4.8 | 11.3 | 0.00 | 0.00 | 0.00 | 65 | 1023.0 |
| 20260902110021 | 25 | 330 | 4.8 | 12.9 | 0.00 | 0.00 | 0.00 | 65 | 1023.1 |
| 20260902104527 | 25 | 322 | 4.8 | 9.7 | 0.00 | 0.00 | 0.00 | 63 | 1023.2 |
| 20260902103037 | 24 | 158 | 1.6 | 6.4 | 0.00 | 0.00 | 0.00 | 66 | 1023.2 |
| 20260902101514 | 24 | 250 | 1.6 | 8.0 | 0.00 | 0.00 | 0.00 | 67 | 1023.4 |
| 20260902100018 | 24 | 98 | 1.6 | 4.8 | 0.00 | 0.00 | 0.00 | 68 | 1023.4 |
| 20260902094526 | 24 | 227 | 1.6 | 6.4 | 0.00 | 0.00 | 0.00 | 68 | 1023.7 |
| 20260902093030 | 24 | 103 | 0.0 | 4.8 | 0.00 | 0.00 | 0.00 | 69 | 1023.7 |
| 20260902091522 | 24 | 59 | 1.6 | 6.4 | 0.00 | 0.00 | 0.00 | 68 | 1023.6 |
| 20260902090018 | 23 | 143 | 1.6 | 8.0 | 0.00 | 0.00 | 0.00 | 65 | 1023.7 |
| 20260902084523 | 23 | 186 | 1.6 | 4.8 | 0.00 | 0.00 | 0.00 | 67 | 1023.6 |
| 20260902083026 | 23 | 141 | 1.6 | 8.0 | 0.00 | 0.00 | 0.00 | 66 | 1023.5 |
| 20260902081535 | 23 | 113 | 1.6 | 4.8 | 0.00 | 0.00 | 0.00 | 65 | 1023.4 |
| 20260902080015 | 22 | 123 | 1.6 | 3.2 | 0.00 | 0.00 | 0.00 | 67 | 1023.3 |
| 20260902074518 | 22 | 137 | 1.6 | 3.2 | 0.00 | 0.00 | 0.00 | 72 | 1023.1 |
| 20260902073025 | 21 | 161 | 0.0 | 3.2 | 0.00 | 0.00 | 0.00 | 73 | 1023.3 |
| 20260902071550 | 22 | 259 | 0.0 | 3.2 | 0.00 | 0.00 | 0.00 | 74 | 1023.2 |
| 20260902070034 | 22 | 250 | 0.0 | 3.2 | 0.00 | 0.00 | 0.00 | 71 | 1023.0 |
| 20260902064518 | 22 | 172 | 0.0 | 3.2 | 0.00 | 0.00 | 0.00 | 71 | 1022.9 |
| 20260902063028 | 21 | 172 | 0.0 | 3.2 | 0.00 | 0.00 | 0.00 | 71 | 1022.9 |
| 20260902061541 | 21 | 185 | 0.0 | 3.2 | 0.00 | 0.00 | 0.00 | 71 | 1022.8 |
| 20260902060035 | 21 | 313 | 1.6 | 3.2 | 0.00 | 0.00 | 0.00 | 72 | 1022.9 |
| 20260902054541 | 21 | 322 | 0.0 | 3.2 | 0.00 | 0.00 | 0.00 | 72 | 1022.7 |
| 20260902053024 | 21 | 9 | 0.0 | 3.2 | 0.00 | 0.00 | 0.00 | 72 | 1022.6 |
| 20260902051530 | 20 | 308 | 0.0 | 3.2 | 0.00 | 0.00 | 0.00 | 73 | 1022.5 |
| 20260902050035 | 20 | 308 | 0.0 | 3.2 | 0.00 | 0.00 | 0.00 | 74 | 1022.5 |
| 20260902044535 | 20 | 309 | 0.0 | 3.2 | 0.00 | 0.00 | 0.00 | 73 | 1022.4 |
| 20260902043032 | 20 | 315 | 0.0 | 1.6 | 0.00 | 0.00 | 0.00 | 73 | 1022.4 |
| 20260902041536 | 20 | 315 | 0.0 | 3.2 | 0.00 | 0.00 | 0.00 | 73 | 1022.3 |
| 20260902040036 | 21 | 265 | 0.0 | 3.2 | 0.00 | 0.00 | 0.00 | 74 | 1022.2 |
| 20260902034533 | 21 | 265 | 0.0 | 0.0 | 0.00 | 0.00 | 0.00 | 73 | 1022.2 |
| 20260902033036 | 21 | 265 | 0.0 | 3.2 | 0.00 | 0.00 | 0.00 | 73 | 1022.3 |
| 20260902031524 | 21 | 265 | 0.0 | 3.2 | 0.00 | 0.00 | 0.00 | 73 | 1022.3 |
| 20260902030027 | 21 | 265 | 0.0 | 3.2 | 0.00 | 0.00 | 0.00 | 73 | 1022.4 |
| 20260902024534 | 21 | 260 | 0.0 | 1.6 | 0.00 | 0.00 | 0.00 | 74 | 1022.3 |
| 20260902023018 | 21 | 260 | 0.0 | 3.2 | 0.00 | 0.00 | 0.00 | 73 | 1022.4 |
| 20260902021516 | 21 | 260 | 0.0 | 0.0 | 0.00 | 0.00 | 0.00 | 72 | 1022.4 |
| 20260902020019 | 21 | 260 | 0.0 | 3.2 | 0.00 | 0.00 | 0.00 | 72 | 1022.4 |
| 20260902014507 | 21 | 260 | 0.0 | 0.0 | 0.00 | 0.00 | 0.00 | 71 | 1022.3 |
| 20260902013011 | 21 | 260 | 0.0 | 3.2 | 0.00 | 0.00 | 0.00 | 71 | 1022.3 |
| 20260902011522 | 21 | 202 | 0.0 | 3.2 | 0.00 | 0.00 | 0.00 | 71 | 1022.4 |
| 20260902010031 | 21 | 199 | 0.0 | 3.2 | 0.00 | 0.00 | 0.00 | 71 | 1022.4 |
| 20260902004523 | 21 | 155 | 0.0 | 1.6 | 0.00 | 0.00 | 0.00 | 72 | 1022.5 |
| 20260902003010 | 21 | 155 | 0.0 | 3.2 | 0.00 | 0.00 | 0.00 | 72 | 1022.5 |
| 20260902001514 | 21 | 144 | 0.0 | 1.6 | 0.00 | 0.00 | 0.00 | 72 | 1022.4 |
| 20260902000036 | 21 | 142 | 0.0 | 3.2 | 0.00 | 0.00 | 0.00 | 72 | 1022.5 |
| 20260901234524 | 21 | 140 | 0.0 | 0.0 | 0.00 | 0.00 | 0.00 | 73 | 1022.5 |
| 20260901233026 | 21 | 140 | 0.0 | 1.6 | 0.00 | 0.00 | 0.00 | 72 | 1022.5 |
| 20260901231512 | 22 | 185 | 0.0 | 3.2 | 0.00 | 0.00 | 0.00 | 68 | 1022.4 |
| 20260901230028 | 22 | 309 | 0.0 | 3.2 | 0.00 | 0.00 | 0.00 | 67 | 1022.5 |
| 20260901224538 | 22 | 309 | 0.0 | 0.0 | 0.00 | 0.00 | 0.00 | 68 | 1022.4 |
| 20260901223044 | 22 | 309 | 0.0 | 3.2 | 0.00 | 0.00 | 0.00 | 67 | 1022.4 |
| 20260901221526 | 22 | 309 | 0.0 | 0.0 | 0.00 | 0.00 | 0.00 | 67 | 1022.5 |
| 20260901220019 | 22 | 309 | 0.0 | 3.2 | 0.00 | 0.00 | 0.00 | 68 | 1022.4 |
| 20260901214523 | 22 | 309 | 0.0 | 0.0 | 0.00 | 0.00 | 0.00 | 68 | 1022.4 |
| 20260901213034 | 22 | 309 | 0.0 | 3.2 | 0.00 | 0.00 | 0.00 | 68 | 1022.5 |
| 20260901211529 | 22 | 309 | 0.0 | 0.0 | 0.00 | 0.00 | 0.00 | 68 | 1022.5 |
| 20260901210039 | 22 | 309 | 0.0 | 3.2 | 0.00 | 0.00 | 0.00 | 69 | 1022.5 |
| 20260901204525 | 22 | 309 | 0.0 | 3.2 | 0.00 | 0.00 | 0.00 | 69 | 1022.5 |
| 20260901203029 | 22 | 309 | 0.0 | 3.2 | 0.00 | 0.00 | 0.00 | 68 | 1022.4 |
| 20260901201527 | 22 | 309 | 0.0 | 3.2 | 0.00 | 0.00 | 0.00 | 67 | 1022.4 |
| 20260901200042 | 22 | 309 | 0.0 | 0.0 | 0.00 | 0.00 | 0.00 | 67 | 1022.3 |
| 20260901194518 | 23 | 309 | 0.0 | 3.2 | 0.00 | 0.00 | 0.00 | 67 | 1022.2 |
| 20260901193027 | 23 | 309 | 0.0 | 3.2 | 0.00 | 0.00 | 0.00 | 66 | 1022.1 |
| 20260901191532 | 23 | 309 | 0.0 | 3.2 | 0.00 | 0.00 | 0.00 | 67 | 1021.9 |
| 20260901190034 | 23 | 309 | 0.0 | 3.2 | 0.00 | 0.00 | 0.00 | 67 | 1021.8 |
| 20260901184533 | 23 | 309 | 0.0 | 0.0 | 0.00 | 0.00 | 0.00 | 66 | 1021.6 |
| 20260901183025 | 23 | 309 | 0.0 | 3.2 | 0.00 | 0.00 | 0.00 | 66 | 1021.4 |
| 20260901181534 | 23 | 309 | 0.0 | 0.0 | 0.00 | 0.00 | 0.00 | 65 | 1021.4 |
| 20260901180034 | 24 | 309 | 0.0 | 0.0 | 0.00 | 0.00 | 0.00 | 64 | 1021.3 |
| 20260901174544 | 24 | 309 | 0.0 | 0.0 | 0.00 | 0.00 | 0.00 | 63 | 1021.2 |
| 20260901173017 | 25 | 309 | 0.0 | 3.2 | 0.00 | 0.00 | 0.00 | 61 | 1021.1 |
| 20260901171524 | 25 | 309 | 0.0 | 3.2 | 0.00 | 0.00 | 0.00 | 62 | 1021.0 |
| 20260901170010 | 25 | 308 | 1.6 | 3.2 | 0.00 | 0.00 | 0.00 | 60 | 1021.1 |
| 20260901164514 | 26 | 299 | 1.6 | 3.2 | 0.00 | 0.00 | 0.00 | 59 | 1021.1 |